Breckenridge, TX

9:34 PM CDT on September 27, 2016 (GMT -0500)
Stephens County

Weather History for KBKD - September, 2012

Change the Weather History Date:

Sunday, September 2, 2012

  Actual Average (KABI) Record (KABI)
Temperature  
Mean Temperature 90 °F 80 °F  
Max Temperature 102 °F 91 °F 105 °F (2000)
Min Temperature 77 °F 69 °F 55 °F (1915)
Degree Days  
Heating Degree Days 0 0  
Month to date heating degree days 0  
Since 1 July heating degree days 0  
Cooling Degree Days 24 15  
Month to date cooling degree days 30  
Year to date cooling degree days 1975  
Growing Degree Days 40 (Base 50)    
Moisture  
Dew Point 62 °F    
Average Humidity 43    
Maximum Humidity 65    
Minimum Humidity 24    
Precipitation  
Precipitation 0.00 in 0.08 in 2.35 in (1935)
Month to date precipitation 0.16  
Year to date precipitation 17.12  
Sea Level Pressure  
Sea Level Pressure 29.97 in    
Wind  
Wind Speed 9 mph (SW)    
Max Wind Speed 15 mph    
Max Gust Speed 21 mph    
Visibility 10 miles    
Events      
T = Trace of Precipitation, MM = Missing Value Source: NWS Daily Summary

Daily Weather History Graph

Daily Weather History Graph

Search for Another Location

Airport or City:

Trip Planner

Search our weather history database for the weather conditions in past years. The results will help you decide how hot, cold, wet, or windy it might be!

Date:

Astronomy

Sep. 02, 2012 Rise Set
Actual Time 7:11 AM CDT 7:58 PM CDT
Civil Twilight 6:46 AM CDT 8:23 PM CDT
Nautical Twilight 6:16 AM CDT 8:52 PM CDT
Astronomical Twilight 5:46 AM CDT 9:23 PM CDT
Moon 8:59 PM CDT (9/2) 9:10 AM CDT (9/2)
Length of Visible Light 13h 37m
Length of Day
12h 46m
Waning Gibbous, 95% of the Moon is Illuminated
Sep 2
Waning Gibbous
Sep 8
Last Quarter
Sep 15
New
Sep 22
First Quarter
Sep 29
Full

Hourly Weather History & Observations

Time (CDT) Temp. Heat Index Dew Point Humidity Pressure Visibility Wind Dir Wind Speed Gust Speed Precip Events Conditions
12:15 AM 86.0 °F 86.1 °F 60.8 °F 43% 29.98 in 10.0 mi SSW 9.2 mph - N/A   Unknown
12:35 AM 86.0 °F 86.1 °F 60.8 °F 43% 29.98 in 10.0 mi SW 9.2 mph - N/A   Unknown
12:55 AM 84.2 °F 85.0 °F 62.6 °F 48% 29.98 in 10.0 mi SSW 8.1 mph - N/A   Unknown
1:15 AM 84.2 °F 85.0 °F 62.6 °F 48% 29.98 in 10.0 mi SSW 10.4 mph 16.1 mph N/A   Unknown
1:35 AM 82.4 °F 83.9 °F 64.4 °F 54% 29.98 in 10.0 mi SSW 10.4 mph - N/A   Unknown
1:55 AM 82.4 °F 83.9 °F 64.4 °F 54% 29.98 in 10.0 mi SW 10.4 mph - N/A   Unknown
2:15 AM 82.4 °F 83.9 °F 64.4 °F 54% 29.98 in 10.0 mi SW 8.1 mph - N/A   Unknown
2:35 AM 82.4 °F 84.6 °F 66.2 °F 58% 29.98 in 10.0 mi SW 8.1 mph - N/A   Unknown
2:55 AM 82.4 °F 84.6 °F 66.2 °F 58% 29.98 in 10.0 mi WSW 9.2 mph - N/A   Unknown
3:15 AM 82.4 °F 84.6 °F 66.2 °F 58% 29.98 in 10.0 mi WSW 8.1 mph - N/A   Unknown
3:35 AM 82.4 °F 84.6 °F 66.2 °F 58% 29.98 in 10.0 mi WSW 9.2 mph - N/A   Unknown
3:55 AM 80.6 °F 82.7 °F 66.2 °F 61% 29.98 in 10.0 mi WSW 9.2 mph - N/A   Unknown
4:15 AM 80.6 °F 82.3 °F 64.4 °F 58% 29.98 in 10.0 mi WSW 10.4 mph - N/A   Unknown
4:35 AM 80.6 °F 82.3 °F 64.4 °F 58% 29.98 in 10.0 mi WSW 10.4 mph - N/A   Unknown
4:55 AM 80.6 °F 82.3 °F 64.4 °F 58% 29.98 in 10.0 mi WSW 9.2 mph - N/A   Unknown
5:15 AM 80.6 °F 82.3 °F 64.4 °F 58% 29.98 in 10.0 mi WSW 10.4 mph - N/A   Unknown
5:35 AM 78.8 °F - 64.4 °F 61% 29.98 in 10.0 mi WSW 9.2 mph - N/A   Unknown
5:55 AM 78.8 °F - 64.4 °F 61% 29.99 in 10.0 mi WSW 6.9 mph - N/A   Unknown
6:15 AM 78.8 °F - 64.4 °F 61% 29.99 in 10.0 mi WSW 5.8 mph - N/A   Unknown
6:35 AM 78.8 °F - 64.4 °F 61% 30.00 in 10.0 mi SW 4.6 mph - N/A   Unknown
6:55 AM 77.0 °F - 64.4 °F 65% 30.01 in 10.0 mi SW 6.9 mph - N/A   Unknown
7:15 AM 77.0 °F - 64.4 °F 65% 30.01 in 10.0 mi SW 6.9 mph - N/A   Unknown
7:35 AM 77.0 °F - 64.4 °F 65% 30.02 in 10.0 mi SW 6.9 mph - N/A   Unknown
7:55 AM 78.8 °F - 64.4 °F 61% 30.02 in 10.0 mi SW 9.2 mph - N/A   Unknown
8:15 AM 78.8 °F - 64.4 °F 61% 30.02 in 10.0 mi SW 10.4 mph - N/A   Unknown
8:35 AM 80.6 °F 82.3 °F 64.4 °F 58% 30.02 in 10.0 mi SW 11.5 mph 17.3 mph N/A   Unknown
8:55 AM 82.4 °F 84.6 °F 66.2 °F 58% 30.03 in 10.0 mi WSW 12.7 mph - N/A   Unknown
9:35 AM 86.0 °F 88.2 °F 66.2 °F 51% 30.03 in 10.0 mi WSW 13.8 mph 19.6 mph N/A   Unknown
9:55 AM 87.8 °F 89.4 °F 64.4 °F 46% 30.03 in 10.0 mi West 15.0 mph - N/A   Unknown
10:15 AM 89.6 °F 91.1 °F 64.4 °F 43% 30.03 in 10.0 mi WSW 13.8 mph 17.3 mph N/A   Unknown
10:35 AM 89.6 °F 91.1 °F 64.4 °F 43% 30.03 in 10.0 mi WSW 13.8 mph 18.4 mph N/A   Unknown
10:55 AM 91.4 °F 93.2 °F 64.4 °F 41% 30.03 in 10.0 mi WSW 13.8 mph 18.4 mph N/A   Unknown
11:15 AM 91.4 °F 93.2 °F 64.4 °F 41% 30.03 in 10.0 mi West 10.4 mph 17.3 mph N/A   Unknown
11:35 AM 93.2 °F 94.1 °F 62.6 °F 36% 30.03 in 10.0 mi West 12.7 mph 20.7 mph N/A   Unknown
11:55 AM 95.0 °F 96.0 °F 62.6 °F 34% 30.02 in 10.0 mi WSW 10.4 mph 17.3 mph N/A   Unknown
12:35 PM 96.8 °F 98.0 °F 62.6 °F 32% 30.01 in 10.0 mi West 8.1 mph - N/A   Unknown
12:55 PM 98.6 °F 99.4 °F 60.8 °F 29% 30.00 in 10.0 mi SSW 6.9 mph - N/A   Unknown
1:15 PM 98.6 °F 100.0 °F 62.6 °F 30% 29.99 in 10.0 mi WSW 6.9 mph - N/A   Unknown
1:35 PM 100.4 °F 102.4 °F 62.6 °F 29% 29.98 in 10.0 mi WSW 4.6 mph 18.4 mph N/A   Unknown
1:55 PM 100.4 °F 101.3 °F 60.8 °F 27% 29.97 in 10.0 mi WSW 11.5 mph - N/A   Unknown
2:15 PM 100.4 °F 101.3 °F 60.8 °F 27% 29.96 in 10.0 mi WSW 8.1 mph 17.3 mph N/A   Unknown
2:35 PM 100.4 °F 101.3 °F 60.8 °F 27% 29.96 in 10.0 mi SW 13.8 mph 20.7 mph N/A   Unknown
2:55 PM 100.4 °F 101.3 °F 60.8 °F 27% 29.94 in 10.0 mi South 5.8 mph 17.3 mph N/A   Unknown
3:15 PM 100.4 °F 101.3 °F 60.8 °F 27% 29.94 in 10.0 mi WSW 10.4 mph 19.6 mph N/A   Unknown
3:35 PM 102.2 °F 102.4 °F 59.0 °F 24% 29.93 in 10.0 mi South 11.5 mph 17.3 mph N/A   Unknown
3:55 PM 102.2 °F 103.6 °F 60.8 °F 26% 29.92 in 10.0 mi SW 9.2 mph - N/A   Unknown
4:15 PM 102.2 °F 102.4 °F 59.0 °F 24% 29.91 in 10.0 mi WSW 10.4 mph 18.4 mph N/A   Unknown
4:35 PM 102.2 °F 102.4 °F 59.0 °F 24% 29.91 in 10.0 mi WSW 11.5 mph - N/A   Unknown
4:55 PM 100.4 °F 100.2 °F 59.0 °F 25% 29.91 in 10.0 mi South 13.8 mph 17.3 mph N/A   Unknown
5:15 PM 100.4 °F 100.2 °F 59.0 °F 25% 29.91 in 10.0 mi SW 15.0 mph - N/A   Unknown
5:55 PM 100.4 °F 99.7 °F 57.2 °F 24% 29.90 in 10.0 mi SSW 12.7 mph - N/A   Unknown
7:15 PM 98.6 °F 97.6 °F 57.2 °F 25% 29.89 in 10.0 mi South 8.1 mph - N/A   Unknown
7:35 PM 98.6 °F 97.6 °F 57.2 °F 25% 29.89 in 10.0 mi SSW 10.4 mph - N/A   Unknown
7:55 PM 96.8 °F 95.8 °F 57.2 °F 27% 29.89 in 10.0 mi SSW 8.1 mph - N/A   Unknown
8:15 PM 95.0 °F 94.4 °F 59.0 °F 30% 29.90 in 10.0 mi SSW 6.9 mph - N/A   Unknown
8:35 PM 93.2 °F 92.6 °F 59.0 °F 32% 29.90 in 10.0 mi SSW 6.9 mph - N/A   Unknown
9:15 PM 89.6 °F 88.9 °F 59.0 °F 36% 29.91 in 10.0 mi South 8.1 mph - N/A   Unknown
9:35 PM 89.6 °F 88.9 °F 59.0 °F 36% 29.91 in 10.0 mi South 8.1 mph - N/A   Unknown
9:55 PM 87.8 °F 87.1 °F 59.0 °F 38% 29.92 in 10.0 mi South 8.1 mph - N/A   Unknown
10:15 PM 87.8 °F 87.1 °F 59.0 °F 38% 29.92 in 10.0 mi South 8.1 mph - N/A   Unknown
10:55 PM 87.8 °F 87.1 °F 59.0 °F 38% 29.93 in 10.0 mi South 8.1 mph - N/A   Unknown
11:15 PM 86.0 °F 86.1 °F 60.8 °F 43% 29.93 in 10.0 mi SSW 9.2 mph - N/A   Unknown
11:35 PM 86.0 °F 85.4 °F 59.0 °F 40% 29.93 in 10.0 mi SSW 10.4 mph - N/A   Unknown
11:55 PM 86.0 °F 85.4 °F 59.0 °F 40% 29.93 in 10.0 mi South 9.2 mph - N/A   Unknown